Vorticity
29 21 15 16 20 23 24 21 15 9 10 12 8 6 13 9 11 1 11 10 8 8 7 9 9 9 4 5 5 6 13 1 1 6 8 3 5 6 9 8 6 7 7 7 8 10 9 8 5 3 6 6 6 6
19 14 14 11 14 16 22 28 18 12 10 10 9 4 13 10 11 10 10 10 8 7 8 8 12 5 4 9 6 8 10 1 2 3 6 8 5 4 7 10 3 5 5 7 8 3 3 5 7 6 4 3 3 3
17 10 13 9 13 14 20 27 25 13 11 12 9 4 10 12 11 7 11 10 9 6 7 7 12 6 6 6 5 8 7 11 4 7 10 9 8 6 6 6 2 4 4 6 8 4 3 3 3 2 1 1 1 4
16 11 9 5 8 12 9 29 28 19 12 12 12 5 8 15 11 5 10 10 8 8 6 10 8 4 6 5 5 7 6 8 2 0 2 13 14 9 7 6 7 6 5 5 6 4 3 3 1 1 2 5 9 12
13 14 11 7 8 13 14 25 29 22 11 12 11 7 8 14 9 15 10 9 7 7 7 10 5 6 6 4 7 5 9 6 2 1 5 6 8 11 17 6 6 7 4 5 3 3 4 4 6 6 11 16 17 13
14 9 9 8 5 9 12 23 32 22 14 12 9 8 9 14 5 13 9 8 6 8 10 9 5 6 5 5 8 5 9 9 3 7 5 1 3 8 10 16 11 11 9 10 9 10 11 12 13 14 14 7 10 11
11 10 7 7 7 14 20 15 28 27 14 12 9 8 10 14 -3 16 7 7 7 8 9 7 5 6 5 4 8 8 10 8 9 7 4 4 6 9 9 9 10 12 11 12 13 11 11 11 12 12 10 11 13 11
12 16 16 15 17 17 19 15 25 29 15 14 9 8 11 14 4 10 8 8 8 10 7 7 5 6 5 6 8 8 10 11 8 7 6 7 8 8 14 10 8 8 9 11 12 12 13 12 10 11 10 8 8 8
16 13 8 10 9 20 19 14 25 30 19 16 11 9 14 9 8 9 8 8 8 11 3 5 5 5 6 9 7 8 10 9 9 9 8 6 16 13 9 8 7 10 10 6 6 7 8 8 8 5 8 9 9 9
12 13 11 8 15 25 16 12 27 31 23 16 10 11 17 5 12 9 10 9 7 11 5 5 6 4 8 9 5 10 11 8 9 11 12 13 9 7 8 8 11 9 5 3 6 7 6 7 7 9 9 11 11 12
19 3 10 12 17 26 12 17 31 35 29 8 10 18 10 7 9 8 9 9 9 10 5 5 7 5 11 5 8 10 8 9 11 11 11 9 8 5 9 9 7 6 5 4 6 7 9 8 9 11 13 12 18 36
20 8 19 19 26 15 12 26 30 46 0 5 10 12 11 1 15 7 8 10 9 9 5 5 6 6 10 7 8 10 8 7 12 10 8 9 5 5 6 5 5 5 6 7 7 6 7 11 14 14 12 22 30 17
23 8 22 22 18 10 22 25 49 -0 7 10 10 12 1 1 12 8 8 12 11 6 5 6 6 8 8 7 10 9 9 8 6 11 8 7 7 6 7 7 8 9 7 7 6 7 11 13 18 16 25 32 8 4
24 22 21 23 7 25 28 40 -2 14 10 12 9 14 -1 11 10 3 9 10 6 5 7 7 5 10 6 8 8 11 8 7 8 9 9 9 8 10 10 9 9 8 6 5 6 8 12 23 20 26 28 11 2 1
19 21 22 8 19 27 43 -12 23 11 12 7 23 3 -1 10 9 4 18 4 9 7 7 6 10 6 11 6 11 11 4 5 7 7 8 6 8 10 10 9 7 7 6 6 8 11 17 27 26 27 12 1 7 36
22 21 10 16 24 35 -7 21 15 7 5 11 16 -8 2 10 12 18 5 6 10 7 7 6 10 7 10 8 9 10 6 5 10 8 10 9 8 9 9 7 8 7 7 7 8 10 27 43 20 11 4 14 36 12
22 9 12 16 9 39 12 16 7 10 6 13 2 -1 1 10 3 12 4 11 7 7 8 8 9 6 9 9 9 11 10 8 10 8 8 8 8 9 9 9 7 6 7 7 7 16 51 24 9 10 30 17 16 4
8 10 15 8 56 8 14 15 9 8 9 15 3 0 3 5 20 3 11 10 3 9 8 11 10 6 10 9 11 7 8 5 5 8 8 8 9 9 11 9 6 6 7 7 14 29 46 12 19 28 9 7 5 0
11 16 13 62 12 13 6 4 12 5 10 16 -4 -0 7 11 9 5 11 6 5 8 10 12 9 6 7 11 7 6 4 4 5 9 11 10 9 12 11 6 5 6 7 9 21 31 36 32 11 8 2 7 3 7
16 11 55 17 14 9 3 7 1 -0 24 15 -7 4 8 18 2 16 5 7 5 8 10 12 8 7 7 5 5 5 5 5 9 15 12 10 11 12 9 5 6 7 8 11 15 33 43 10 10 1 6 10 4 6
13 55 15 7 7 8 -22 23 19 14 8 12 -6 -4 20 6 14 10 4 8 6 11 10 14 8 6 4 5 5 4 7 9 11 5 6 8 12 11 6 3 6 8 8 9 17 33 35 9 9 1 9 0 4 7
46 26 2 6 17 -34 25 28 18 15 13 9 -7 11 8 14 9 6 9 6 8 11 13 10 6 5 5 4 6 8 11 10 12 12 13 12 11 9 4 4 7 8 7 9 18 28 29 12 4 6 0 3 -1 4
34 3 14 -19 4 -2 8 31 8 14 12 8 3 20 6 15 3 7 11 6 10 12 10 9 7 6 7 7 10 10 9 9 10 8 10 10 13 8 4 4 6 7 6 9 18 23 27 14 6 7 1 4 2 3
10 -20 18 2 3 10 22 16 16 12 9 12 19 11 16 -1 7 10 7 9 11 10 7 9 9 9 8 10 9 11 10 8 8 8 9 11 12 8 4 4 7 6 5 8 17 18 27 11 11 7 2 2 4 2
-15 7 -23 26 -3 22 12 14 14 9 10 25 10 15 0 3 9 7 7 11 10 8 8 9 9 9 9 13 13 8 7 6 7 9 9 14 14 8 3 5 7 7 8 9 19 15 20 16 10 1 2 5 2 3
11 4 -2 8 18 18 14 15 11 6 16 20 13 5 4 8 6 9 9 9 9 8 8 8 10 12 10 6 6 6 7 8 10 9 12 14 11 8 5 2 5 7 7 11 17 16 18 14 10 6 1 3 5 1
32 9 3 12 9 17 13 10 4 18 20 14 8 3 5 7 10 9 9 11 10 9 10 10 8 8 8 9 8 8 8 8 7 8 11 13 13 8 7 5 4 5 10 8 14 21 19 14 12 4 4 0 3 1
31 11 10 9 16 14 8 9 18 17 19 6 4 6 3 11 11 8 8 9 9 9 8 8 7 8 7 9 8 9 8 8 8 6 9 14 13 11 10 7 4 4 4 7 10 19 19 14 16 10 1 5 -0 0
17 4 3 10 13 5 10 16 21 21 2 4 7 10 8 9 8 7 5 8 8 7 8 9 9 7 8 7 7 8 8 10 11 10 10 11 10 10 11 10 7 3 6 5 7 9 24 21 16 16 6 6 2 1
9 11 13 14 7 11 13 17 20 1 9 8 7 7 12 12 10 8 11 10 10 10 10 8 9 9 8 7 6 6 9 10 11 12 11 10 10 11 15 14 14 9 6 5 9 10 12 20 24 12 12 6 2 1
11 11 11 7 12 12 21 -15 35 -4 8 9 8 6 10 13 11 13 12 9 9 9 9 12 9 6 6 6 7 8 9 8 10 14 10 10 10 9 9 12 10 14 12 10 6 15 13 14 19 18 15 8 3 2
7 8 6 8 15 18 -8 35 9 1 13 11 9 7 8 9 12 11 11 11 10 9 9 5 4 6 5 7 7 9 8 11 14 14 10 8 7 5 5 8 12 9 9 20 12 6 10 19 18 15 17 15 10 5
7 9 4 19 15 3 6 4 7 4 5 8 5 5 7 6 7 7 7 6 5 5 5 7 6 3 2 4 8 10 8 9 12 13 12 9 6 4 4 3 5 8 7 10 9 14 16 5 18 19 12 10 12 12
Height
5469 5478 5486 5495 5503 5513 5523 5535 5549 5562 5575 5588 5601 5612 5624 5634 5645 5656 5668 5677 5686 5694 5701 5709 5714 5720 5724 5729 5732 5736 5739 5741 5741 5742 5741 5740 5739 5736 5733 5730 5727 5725 5722 5720 5718 5716 5715 5714 5715 5715 5715 5713 5712 5710
5459 5468 5477 5486 5495 5504 5513 5524 5538 5552 5566 5580 5593 5606 5617 5627 5640 5651 5663 5672 5682 5690 5700 5705 5711 5717 5724 5727 5731 5734 5738 5739 5740 5741 5741 5740 5739 5737 5735 5733 5731 5729 5728 5726 5725 5722 5720 5719 5718 5717 5716 5714 5711 5709
5451 5461 5470 5479 5488 5498 5506 5515 5528 5543 5558 5573 5586 5599 5611 5622 5635 5647 5658 5668 5677 5687 5694 5700 5708 5716 5720 5724 5728 5732 5735 5737 5739 5740 5740 5740 5739 5738 5737 5735 5733 5731 5730 5729 5727 5725 5723 5721 5720 5718 5716 5713 5710 5707
5444 5454 5464 5473 5482 5492 5500 5508 5519 5534 5550 5565 5579 5593 5605 5617 5630 5642 5653 5664 5673 5682 5688 5698 5704 5711 5717 5721 5726 5730 5733 5736 5738 5739 5739 5740 5738 5737 5736 5736 5734 5733 5731 5730 5728 5725 5723 5722 5720 5717 5715 5711 5707 5703
5439 5449 5458 5467 5477 5486 5494 5501 5512 5526 5543 5558 5573 5586 5599 5613 5625 5637 5649 5659 5669 5679 5685 5695 5702 5708 5714 5719 5723 5728 5731 5734 5736 5738 5739 5739 5738 5736 5735 5735 5734 5732 5731 5730 5728 5726 5724 5721 5719 5715 5712 5708 5704 5699
5435 5444 5453 5462 5471 5480 5487 5495 5506 5520 5536 5552 5567 5581 5593 5608 5620 5632 5643 5653 5663 5674 5683 5690 5699 5705 5711 5717 5721 5726 5729 5732 5734 5736 5737 5738 5737 5736 5735 5734 5733 5731 5730 5729 5727 5724 5722 5720 5717 5713 5709 5705 5702 5698
5431 5439 5448 5456 5464 5473 5480 5489 5500 5513 5530 5547 5562 5575 5589 5604 5617 5629 5640 5652 5661 5671 5681 5689 5695 5703 5709 5714 5719 5724 5727 5729 5732 5734 5736 5736 5735 5734 5734 5733 5732 5730 5729 5727 5725 5723 5721 5718 5715 5711 5707 5703 5699 5695
5425 5433 5441 5449 5458 5466 5474 5484 5495 5509 5526 5542 5558 5572 5587 5601 5616 5626 5638 5648 5658 5667 5676 5683 5692 5700 5706 5712 5717 5721 5724 5727 5729 5732 5733 5734 5734 5733 5732 5731 5731 5730 5728 5727 5725 5722 5719 5716 5712 5709 5705 5700 5696 5691
5420 5428 5436 5445 5453 5460 5470 5481 5492 5506 5523 5540 5555 5570 5584 5598 5613 5624 5633 5643 5654 5663 5670 5681 5690 5699 5705 5710 5716 5719 5722 5724 5727 5729 5731 5732 5732 5732 5732 5731 5730 5729 5728 5726 5724 5721 5718 5715 5711 5707 5702 5698 5693 5689
5415 5423 5431 5440 5448 5457 5468 5478 5489 5505 5521 5538 5554 5567 5582 5596 5609 5620 5630 5639 5649 5659 5670 5679 5688 5697 5703 5708 5713 5717 5720 5722 5725 5728 5729 5730 5731 5731 5731 5731 5730 5729 5728 5726 5724 5720 5717 5713 5709 5705 5700 5695 5691 5686
5410 5418 5427 5436 5445 5454 5466 5477 5490 5506 5521 5537 5550 5566 5581 5594 5607 5616 5625 5635 5646 5656 5667 5676 5686 5694 5700 5706 5710 5714 5718 5720 5723 5727 5728 5729 5731 5731 5731 5731 5730 5729 5727 5725 5722 5719 5714 5711 5707 5702 5698 5693 5688 5684
5406 5415 5424 5432 5442 5454 5465 5476 5490 5505 5520 5535 5551 5565 5579 5593 5603 5610 5620 5632 5642 5655 5666 5676 5685 5692 5699 5704 5708 5712 5716 5719 5722 5725 5727 5729 5730 5731 5731 5730 5730 5729 5727 5724 5721 5717 5713 5709 5704 5699 5695 5690 5688 5686
5403 5412 5421 5431 5441 5452 5462 5475 5490 5506 5519 5535 5549 5563 5576 5584 5594 5605 5616 5630 5642 5654 5664 5675 5684 5690 5696 5702 5707 5711 5715 5718 5722 5725 5727 5729 5729 5730 5731 5730 5730 5728 5725 5722 5719 5715 5710 5706 5701 5697 5693 5691 5690 5689
5400 5409 5418 5429 5440 5451 5463 5477 5491 5504 5521 5535 5548 5561 5570 5581 5591 5606 5620 5634 5648 5660 5668 5676 5683 5690 5697 5702 5706 5710 5715 5718 5722 5725 5727 5728 5729 5730 5730 5730 5729 5727 5724 5721 5717 5713 5708 5703 5699 5695 5694 5694 5694 5692
5398 5408 5418 5430 5441 5451 5462 5477 5490 5506 5519 5535 5547 5559 5568 5580 5596 5609 5624 5639 5651 5659 5667 5675 5683 5689 5695 5699 5705 5710 5714 5717 5721 5725 5727 5727 5728 5729 5729 5729 5728 5726 5723 5720 5715 5711 5706 5701 5698 5697 5698 5698 5697 5695
5396 5405 5418 5430 5440 5449 5465 5478 5491 5507 5522 5534 5547 5557 5569 5583 5601 5616 5629 5639 5648 5658 5665 5672 5679 5686 5692 5697 5704 5709 5714 5718 5721 5724 5726 5726 5727 5728 5728 5728 5727 5725 5722 5718 5714 5709 5703 5700 5699 5700 5701 5700 5699 5698
5397 5412 5421 5429 5440 5453 5466 5480 5495 5511 5521 5534 5547 5558 5573 5590 5604 5618 5629 5639 5648 5656 5664 5671 5678 5685 5692 5697 5703 5709 5713 5717 5720 5723 5724 5725 5726 5727 5727 5727 5726 5724 5721 5717 5713 5707 5703 5701 5702 5703 5703 5704 5703 5703
5403 5412 5419 5430 5443 5457 5470 5484 5500 5513 5526 5536 5548 5565 5582 5593 5605 5618 5629 5638 5648 5656 5663 5670 5680 5687 5694 5698 5703 5708 5712 5715 5718 5721 5722 5723 5724 5726 5726 5726 5726 5723 5720 5716 5712 5707 5703 5703 5704 5706 5707 5707 5707 5707
5403 5412 5424 5438 5455 5469 5483 5495 5507 5519 5530 5542 5559 5573 5583 5594 5606 5617 5628 5638 5645 5655 5663 5670 5677 5685 5692 5696 5702 5706 5710 5714 5717 5719 5720 5722 5723 5724 5725 5726 5725 5722 5719 5716 5711 5706 5704 5705 5708 5709 5711 5711 5712 5711
5403 5416 5430 5447 5460 5473 5488 5503 5512 5523 5534 5552 5564 5574 5586 5596 5607 5617 5626 5636 5646 5653 5660 5668 5677 5684 5689 5695 5700 5704 5708 5712 5714 5717 5719 5720 5722 5723 5724 5725 5723 5721 5719 5715 5711 5707 5706 5708 5710 5712 5714 5715 5715 5715
5410 5423 5439 5450 5465 5481 5496 5507 5514 5525 5543 5554 5564 5577 5587 5596 5606 5616 5627 5635 5643 5652 5660 5668 5675 5681 5687 5693 5698 5702 5706 5708 5711 5714 5716 5718 5720 5722 5723 5723 5722 5720 5718 5715 5711 5708 5708 5710 5713 5715 5716 5717 5718 5718
5421 5435 5448 5462 5476 5488 5497 5507 5518 5533 5544 5555 5568 5577 5587 5597 5607 5617 5626 5635 5643 5651 5659 5666 5673 5679 5685 5691 5696 5699 5703 5706 5709 5712 5714 5717 5718 5720 5721 5722 5721 5719 5717 5715 5712 5710 5710 5712 5714 5716 5717 5718 5719 5719
5430 5444 5459 5470 5478 5490 5502 5511 5523 5533 5545 5557 5568 5578 5588 5597 5608 5617 5625 5635 5643 5650 5657 5664 5670 5677 5683 5689 5693 5697 5700 5704 5707 5710 5712 5715 5716 5718 5720 5720 5719 5718 5716 5714 5712 5710 5711 5713 5715 5716 5718 5718 5719 5719
5445 5452 5464 5472 5482 5493 5501 5512 5525 5537 5547 5557 5568 5579 5589 5600 5609 5618 5626 5635 5643 5649 5655 5662 5669 5676 5681 5686 5690 5694 5699 5702 5705 5708 5710 5712 5714 5716 5717 5718 5718 5717 5715 5713 5712 5711 5711 5713 5714 5716 5717 5718 5718 5719
5444 5454 5466 5473 5485 5496 5507 5519 5530 5541 5551 5561 5572 5582 5591 5600 5610 5619 5627 5635 5642 5649 5655 5661 5667 5673 5678 5684 5689 5693 5697 5700 5703 5705 5707 5709 5711 5714 5715 5716 5716 5715 5714 5713 5712 5711 5711 5712 5714 5715 5715 5716 5717 5717
5452 5461 5469 5477 5492 5505 5515 5526 5534 5543 5554 5565 5573 5583 5592 5602 5610 5619 5628 5635 5642 5649 5655 5661 5667 5672 5677 5681 5686 5690 5694 5697 5700 5703 5705 5706 5708 5710 5712 5713 5714 5714 5713 5712 5711 5710 5711 5712 5713 5714 5714 5715 5715 5715
5456 5467 5478 5490 5499 5510 5520 5529 5539 5548 5557 5567 5577 5586 5595 5604 5613 5622 5629 5635 5642 5648 5653 5659 5665 5670 5675 5680 5684 5688 5692 5695 5697 5699 5701 5703 5705 5707 5709 5710 5711 5711 5711 5710 5709 5709 5709 5710 5712 5712 5713 5713 5713 5713
5461 5473 5485 5496 5504 5514 5524 5532 5540 5549 5559 5571 5581 5590 5598 5607 5615 5621 5628 5634 5640 5646 5652 5658 5664 5669 5674 5679 5682 5686 5689 5692 5694 5696 5698 5700 5702 5704 5706 5707 5708 5708 5708 5707 5707 5707 5707 5707 5707 5709 5709 5710 5710 5710
5468 5477 5485 5496 5507 5518 5525 5536 5546 5555 5565 5573 5582 5591 5600 5608 5616 5621 5627 5633 5640 5646 5653 5659 5664 5669 5673 5677 5680 5683 5686 5688 5691 5693 5694 5696 5698 5701 5702 5703 5703 5704 5704 5704 5704 5703 5703 5703 5704 5704 5704 5705 5707 5707
5474 5483 5494 5504 5513 5521 5531 5540 5552 5562 5569 5577 5584 5592 5601 5608 5614 5620 5627 5633 5640 5646 5652 5656 5661 5666 5669 5673 5676 5679 5682 5685 5687 5689 5690 5692 5695 5697 5698 5698 5699 5699 5699 5699 5699 5699 5698 5699 5699 5700 5701 5702 5701 5700
5480 5490 5500 5508 5516 5525 5533 5541 5550 5560 5569 5577 5584 5592 5599 5605 5612 5619 5625 5632 5638 5643 5649 5654 5659 5663 5666 5669 5672 5675 5678 5680 5682 5684 5687 5689 5690 5692 5692 5693 5694 5694 5694 5694 5695 5694 5694 5693 5693 5693 5694 5694 5693 5693
5486 5495 5504 5512 5518 5527 5536 5543 5551 5560 5569 5577 5584 5591 5597 5603 5610 5617 5623 5629 5635 5641 5647 5651 5655 5658 5661 5665 5667 5671 5675 5677 5679 5681 5682 5684 5686 5687 5688 5688 5688 5688 5688 5689 5688 5687 5687 5686 5686 5686 5686 5686 5686 5686
5491 5498 5506 5512 5521 5529 5537 5545 5552 5558 5567 5575 5581 5587 5595 5602 5609 5615 5621 5627 5633 5637 5642 5645 5648 5652 5656 5659 5663 5667 5670 5672 5675 5677 5678 5680 5681 5681 5681 5682 5682 5682 5682 5682 5682 5681 5680 5679 5679 5678 5678 5678 5677 5677